Regional Weather Roundup
Issued by NWS

Home | Current Version | Previous Version | Text Only | Print | Product List | Glossary On
Versions: 1 2 3 4 5 6 7 8 9 10 11 12 13 14 15 16 17 18 19 20 21 22 23 24 25 26 27 28 29 30 31 32 33 34 35 36 37 38 39 40 41 42 43 44 45 46 47 48 49 50
000
ASPQ40 PGUM 010610
RWRPQ
WEATHER ROUNDUP FOR THE MARIANAS AND MICRONESIA
NATIONAL WEATHER SERVICE TIYAN GU
400 PM CHST TUE SEP 01 2015

GUZ001>004-010700-
MARIANA ISLANDS-

CITY           SKY/WX    TMP DP  RH WIND       PRES   REMARKS
GUAM AIRPORT   MOSUNNY   84  77  79 W7        29.83S HX  94
ANDERSEN AFB   SUNNY     84  75  74 SE8       29.83F HX  92
ROTA AIRPORT   MOSUNNY   81  77  89 E7        29.84S
TINIAN AP      MOSUNNY   84  75  74 E7        29.82S HX  92
SAIPAN AP      SUNNY     84  79  84 E5        29.83S HX  96

$$

PMZ161-010700-
REPUBLIC OF PALAU-

CITY           SKY/WX    TMP DP  RH WIND       PRES   REMARKS
KOROR AP       CLOUDY    79  75  89 CALM      29.80F
KOROR WSO      CLOUDY    81  73  78 S6        29.82F

$$

PMZ171>174-010700-
FEDERATED STATES OF MICRONESIA-

CITY           SKY/WX    TMP DP  RH WIND       PRES   REMARKS
YAP AIRPORT    PTSUNNY   86  77  74 W9        29.79S HX  97
CHUUK AP       PTSUNNY   86  79  79 W8        29.78S HX  99
POHNPEI AP     NOT AVBL
POHNPEI WSO    PTSUNNY   84  79  84 NW5       29.80R HX  96
KOSRAE AP      NOT AVBL

$$

PMZ181-010700-
REPUBLIC OF THE MARSHALL ISLANDS-

CITY           SKY/WX    TMP DP  RH WIND       PRES   REMARKS
KWAJALEIN AP   MOSUNNY   88  73  62 SE6       29.76R HX  96
MAJURO AP      NOT AVBL
MAJURO WSO     PTCLDY    84  77  79 S12       29.77R HX  94

$$



USA.gov is the U.S. government's official web portal to all federal, state and local government web resources and services.